Change the Weather History Date:

Thursday, March 28, 2013

  Actual Average Record
Temperature  
Mean Temperature 40 °F -  
Max Temperature 48 °F 53 °F 60 °F (2001)
Min Temperature 32 °F 35 °F 10 °F (2003)
Degree Days  
Heating Degree Days 25    
Moisture  
Dew Point 35 °F    
Average Humidity 76    
Maximum Humidity 93    
Minimum Humidity 48    
Precipitation  
Precipitation 0.03 in 0.07 in - ()
Sea Level Pressure  
Sea Level Pressure 30.00 in    
Wind  
Wind Speed 4 mph ()    
Max Wind Speed 12 mph    
Max Gust Speed -    
Visibility 6.2 miles    
Events Rain    
Averages and records for this station are not official NWS values.
T = Trace of Precipitation, MM = Missing Value Source: Averaged Metar Reports

Daily Weather History Graph

Daily Weather History Graph

Search for Another Location

Airport or City:

Trip Planner

Search our weather history database for the weather conditions in past years. The results will help you decide how hot, cold, wet, or windy it might be!

Date:

Astronomy

Mar. 28, 2013 Rise Set
Actual Time 4:57 AM EET 5:26 PM EET
Civil Twilight 4:31 AM EET 5:52 PM EET
Nautical Twilight 4:00 AM EET 6:23 PM EET
Astronomical Twilight 3:28 AM EET 6:56 PM EET
Moon 6:51 PM EET (3/28) 5:12 AM EET (3/28)
Length of Visible Light 13h 21m
Length of Day
12h 28m
Full, 99% of the Moon is Illuminated
Mar 28
Full
Apr 3
Last Quarter
Apr 10
New
Apr 18
First Quarter
Apr 25
Full

Hourly Weather History & Observations

Time (EET) Temp. Windchill Dew Point Humidity Pressure Visibility Wind Dir Wind Speed Gust Speed Precip Events Conditions
12:50 AM 39.2 °F 34.2 °F 35.6 °F 87% 29.95 in 6.2 mi East 6.9 mph - N/A Rain Light Rain Showers
1:37 AM 39.2 °F 34.2 °F 35.6 °F 87% 29.95 in 6.2 mi ENE 6.9 mph - N/A   Mostly Cloudy
1:50 AM 39.2 °F 35.9 °F 33.8 °F 81% 29.95 in 6.2 mi ENE 4.6 mph - N/A   Mostly Cloudy
2:00 AM 39 °F - 35 °F 79%  in 6 mi ENE 4.6 mph - - Rain Light Rain Showers
2:50 AM 35.6 °F 30.7 °F 33.8 °F 93% 29.95 in 6.2 mi NE 5.8 mph - N/A   Scattered Clouds
3:50 AM 33.8 °F - 32.0 °F 93% 29.95 in 6.2 mi Variable 2.3 mph - N/A   Scattered Clouds
4:50 AM 32.0 °F 28.7 °F 30.2 °F 93% 29.98 in 6.2 mi SSE 3.5 mph - N/A   Mostly Cloudy
5:50 AM 33.8 °F - 32.0 °F 93% 29.98 in 6.2 mi East 2.3 mph - N/A   Scattered Clouds
6:50 AM 42.8 °F - 35.6 °F 76% 30.01 in 6.2 mi Variable 1.2 mph - N/A   Mostly Cloudy
7:50 AM 42.8 °F 38.6 °F 37.4 °F 81% 30.01 in 6.2 mi NW 6.9 mph - N/A   Mostly Cloudy
8:00 AM 42 °F - 37 °F 78%  in 6 mi NW 6.9 mph - -   Partly Cloudy
8:50 AM 42.8 °F 39.3 °F 37.4 °F 81% 30.04 in 6.2 mi West 5.8 mph - N/A   Scattered Clouds
9:50 AM 46.4 °F 42.9 °F 37.4 °F 71% 30.01 in 6.2 mi WNW 6.9 mph - N/A   Scattered Clouds
10:50 AM 48.2 °F - 39.2 °F 71% 30.01 in 6.2 mi NW 11.5 mph - N/A   Mostly Cloudy
11:50 AM 46.4 °F 41.5 °F 39.2 °F 76% 30.01 in 6.2 mi WNW 10.4 mph - N/A   Mostly Cloudy
12:50 PM 46.4 °F 42.9 °F 37.4 °F 71% 30.01 in 6.2 mi WNW 6.9 mph - N/A   Mostly Cloudy
1:50 PM 48.2 °F - 32.0 °F 54% 30.01 in 6.2 mi West 5.8 mph - N/A   Mostly Cloudy
2:00 PM 47 °F - 34 °F 48%  in 6 mi West 5.8 mph - -   Partly Cloudy
2:50 PM 46.4 °F 44.3 °F 33.8 °F 62% 29.98 in 6.2 mi West 4.6 mph - N/A   Mostly Cloudy
3:50 PM 46.4 °F - 33.8 °F 62% 29.98 in 6.2 mi Variable 2.3 mph - N/A   Mostly Cloudy
4:50 PM 46.4 °F - 32.0 °F 57% 30.01 in 6.2 mi Variable 2.3 mph - N/A   Mostly Cloudy
5:50 PM 44.6 °F - 32.0 °F 61% 30.01 in 6.2 mi Calm Calm - N/A   Mostly Cloudy
6:50 PM 42.8 °F - 33.8 °F 70% 30.01 in 6.2 mi Variable 2.3 mph - N/A   Mostly Cloudy
7:50 PM 42.8 °F - 35.6 °F 76% 30.04 in 6.2 mi Calm Calm - N/A   Mostly Cloudy
8:00 PM 43 °F - 35 °F 66%  in 7 mi Calm Calm - -   Partly Cloudy
8:50 PM 42.8 °F - 37.4 °F 81% 30.04 in 6.2 mi SE 1.2 mph - N/A   Mostly Cloudy
9:11 PM 44.6 °F 43.1 °F 39.2 °F 81% 30.04 in 6.2 mi West 3.5 mph - N/A Rain Light Rain Showers
9:50 PM 42.8 °F 38.0 °F 37.4 °F 81% 30.04 in 6.2 mi West 8.1 mph - N/A Rain Light Rain Showers
10:50 PM 42.8 °F 39.3 °F 39.2 °F 87% 30.04 in 6.2 mi WNW 5.8 mph - N/A Rain Light Rain Showers
11:50 PM 41.0 °F - 37.4 °F 87% 30.04 in 6.2 mi East 2.3 mph - N/A   Mostly Cloudy